CEB219 RPLL-ROAH

Flight info

Callsign CEB219
Flight time N/A
Altitude 39000
Route CAB2R CAB DCT CUY DCT DADNU DCT GUMBO DCT ENTOK
Aircraft B752/M-SDE3FGHIM3RWXY/LB1

Departure

Time N/A
Airport Ninoy Aquino International Airport (RPLL)

Arrival

Time 2026-05-06 03:52
Airport Naha International Airport (ROAH)
Time Latitude Longitude Altitude Speed Heading
2026-05-06 02:22 18.25917 122.32320 38951 ft 469 kts
2026-05-06 02:23 18.29123 122.32967 38950 ft 469 kts
2026-05-06 02:23 18.35502 122.34256 38943 ft 469 kts
2026-05-06 02:24 18.41919 122.35554 38934 ft 468 kts
2026-05-06 02:24 18.48320 122.36848 38932 ft 469 kts
2026-05-06 02:25 18.54704 122.38141 38928 ft 468 kts
2026-05-06 02:25 18.61093 122.39436 38929 ft 468 kts
2026-05-06 02:26 18.67531 122.40740 38928 ft 469 kts
2026-05-06 02:26 18.73958 122.42045 38928 ft 469 kts
2026-05-06 02:27 18.80346 122.43342 38927 ft 469 kts
2026-05-06 02:27 18.86771 122.44648 38929 ft 468 kts
2026-05-06 02:28 18.93176 122.45951 38927 ft 468 kts
2026-05-06 02:28 18.99596 122.47258 38929 ft 467 kts
2026-05-06 02:29 19.05962 122.48554 38939 ft 468 kts
2026-05-06 02:29 19.12379 122.49863 38941 ft 469 kts
2026-05-06 02:30 19.18779 122.51169 38941 ft 469 kts
2026-05-06 02:30 19.25238 122.52488 38942 ft 469 kts
2026-05-06 02:31 19.31626 122.53793 38942 ft 468 kts
2026-05-06 02:31 19.38024 122.55102 38944 ft 468 kts
2026-05-06 02:32 19.44407 122.56408 38940 ft 467 kts
2026-05-06 02:32 19.50781 122.57714 38943 ft 467 kts
2026-05-06 02:33 19.57189 122.59028 38944 ft 467 kts
2026-05-06 02:33 19.59310 122.59462 38944 ft 468 kts
2026-05-06 02:34 19.69967 122.61651 38942 ft 467 kts
2026-05-06 02:34 19.76343 122.62961 38941 ft 467 kts
2026-05-06 02:35 19.82744 122.64278 38943 ft 466 kts
2026-05-06 02:35 19.89095 122.65585 38928 ft 465 kts
2026-05-06 02:36 19.95465 122.66898 38936 ft 467 kts
2026-05-06 02:36 20.01869 122.68218 38937 ft 467 kts
2026-05-06 02:37 20.08231 122.69531 38940 ft 466 kts
2026-05-06 02:37 20.14608 122.70848 38941 ft 467 kts
2026-05-06 02:38 20.20988 122.72166 38939 ft 466 kts
2026-05-06 02:38 20.27384 122.73490 38941 ft 467 kts
2026-05-06 02:39 20.33763 122.74811 38939 ft 466 kts
2026-05-06 02:39 20.40107 122.76126 38942 ft 465 kts
2026-05-06 02:40 20.46472 122.77445 38946 ft 466 kts
2026-05-06 02:40 20.52885 122.78777 38941 ft 467 kts
2026-05-06 02:41 20.59268 122.80102 38946 ft 467 kts
2026-05-06 02:41 20.65621 122.81424 38945 ft 467 kts
2026-05-06 02:42 20.72006 122.82753 38940 ft 466 kts
2026-05-06 02:42 20.78389 122.84082 38944 ft 466 kts
2026-05-06 02:43 20.84753 122.85409 38942 ft 466 kts
2026-05-06 02:43 20.91108 122.86736 38945 ft 466 kts
2026-05-06 02:44 20.97513 122.88075 38948 ft 467 kts
2026-05-06 02:44 21.03889 122.89410 38947 ft 467 kts
2026-05-06 02:45 21.10264 122.90747 38960 ft 468 kts
2026-05-06 02:45 21.16683 122.92094 38966 ft 468 kts
2026-05-06 02:46 21.23078 122.93437 38967 ft 468 kts
2026-05-06 02:46 21.29484 122.94785 38971 ft 467 kts
2026-05-06 02:47 21.35896 122.96132 38975 ft 471 kts
2026-05-06 02:47 21.42309 122.97484 38957 ft 469 kts
2026-05-06 02:48 21.48772 122.98846 38961 ft 471 kts
2026-05-06 02:48 21.55158 123.00193 38963 ft 470 kts
2026-05-06 02:49 21.61604 123.01555 38959 ft 470 kts
2026-05-06 02:49 21.68022 123.02911 38961 ft 471 kts
2026-05-06 02:50 21.72328 123.03822 38969 ft 471 kts
2026-05-06 02:50 21.80621 123.05578 38957 ft 471 kts
2026-05-06 02:51 21.87079 123.06946 38967 ft 473 kts
2026-05-06 02:51 21.93533 123.08316 38966 ft 472 kts
2026-05-06 02:52 22.00006 123.09689 38973 ft 472 kts
2026-05-06 02:52 22.06463 123.11062 38965 ft 472 kts
2026-05-06 02:53 22.12907 123.12433 38973 ft 473 kts
2026-05-06 02:53 22.19328 123.13800 38968 ft 471 kts
2026-05-06 02:54 22.25773 123.15173 38969 ft 472 kts
2026-05-06 02:54 22.32274 123.16560 38965 ft 474 kts
2026-05-06 02:55 22.38753 123.17944 38963 ft 471 kts
2026-05-06 02:55 22.45154 123.19312 38970 ft 469 kts
2026-05-06 02:56 22.51535 123.20677 38968 ft 468 kts
2026-05-06 02:56 22.57930 123.22047 38969 ft 467 kts
2026-05-06 02:57 22.64373 123.23427 38969 ft 469 kts
2026-05-06 02:57 22.70779 123.24800 38973 ft 471 kts
2026-05-06 02:58 22.77156 123.26530 38973 ft 477 kts 14°
2026-05-06 02:58 22.83318 123.29386 38971 ft 484 kts 16°
2026-05-06 02:59 22.89457 123.32291 38971 ft 480 kts 16°
2026-05-06 02:59 22.95561 123.35201 38968 ft 479 kts 17°
2026-05-06 03:00 23.01698 123.38135 38975 ft 481 kts 16°
2026-05-06 03:00 23.07809 123.41061 38973 ft 481 kts 16°
2026-05-06 03:01 23.13949 123.44009 38974 ft 480 kts 16°
2026-05-06 03:01 23.20040 123.46932 38981 ft 483 kts 16°
2026-05-06 03:02 23.26210 123.49900 38976 ft 482 kts 16°
2026-05-06 03:02 23.32328 123.52842 38978 ft 483 kts 16°
2026-05-06 03:03 23.38482 123.55808 38977 ft 484 kts 16°
2026-05-06 03:03 23.44619 123.58767 38980 ft 485 kts 16°
2026-05-06 03:04 23.50766 123.61736 38973 ft 482 kts 16°
2026-05-06 03:04 23.56954 123.64724 38972 ft 484 kts 15°
2026-05-06 03:05 23.63112 123.67703 38960 ft 485 kts 16°
2026-05-06 03:05 23.69288 123.70693 38963 ft 487 kts 16°
2026-05-06 03:06 23.75435 123.73673 38963 ft 488 kts 16°
2026-05-06 03:06 23.81683 123.76704 38956 ft 488 kts 16°
2026-05-06 03:07 23.87851 123.79703 38961 ft 484 kts 16°
2026-05-06 03:07 23.94014 123.82697 38963 ft 485 kts 16°
2026-05-06 03:08 24.00178 123.85697 38967 ft 487 kts 16°
2026-05-06 03:08 24.06369 123.88714 38965 ft 487 kts 16°
2026-05-06 03:09 24.12587 123.91747 38971 ft 489 kts 16°
2026-05-06 03:09 24.18814 123.94710 38968 ft 487 kts 15°
2026-05-06 03:10 24.25043 123.97687 38970 ft 489 kts 16°
2026-05-06 03:10 24.31244 124.00696 38975 ft 487 kts 16°
2026-05-06 03:11 24.37452 124.03724 38977 ft 491 kts 17°
2026-05-06 03:11 24.43740 124.06801 38978 ft 490 kts 17°
2026-05-06 03:12 24.49946 124.09843 38985 ft 491 kts 17°
2026-05-06 03:12 24.56204 124.12915 38975 ft 493 kts 17°
2026-05-06 03:13 24.62465 124.15994 38967 ft 489 kts 17°
2026-05-06 03:13 24.68710 124.19064 38971 ft 494 kts 17°
2026-05-06 03:14 24.74953 124.22139 38973 ft 493 kts 17°
2026-05-06 03:14 24.81230 124.25235 38967 ft 492 kts 17°
2026-05-06 03:15 24.87448 124.28304 38978 ft 493 kts 18°
2026-05-06 03:15 24.93755 124.31420 38981 ft 494 kts 18°
2026-05-06 03:16 25.00016 124.34518 38975 ft 495 kts 18°
2026-05-06 03:16 25.06300 124.37631 38979 ft 495 kts 18°
2026-05-06 03:17 25.12606 124.40758 38974 ft 493 kts 18°
2026-05-06 03:17 25.18851 124.43858 38984 ft 494 kts 18°
2026-05-06 03:18 25.25146 124.46985 38990 ft 496 kts 18°
2026-05-06 03:18 25.31407 124.50102 38981 ft 493 kts 18°
2026-05-06 03:19 25.37714 124.53242 38982 ft 497 kts 18°
2026-05-06 03:19 25.44018 124.56386 38983 ft 496 kts 18°
2026-05-06 03:20 25.48203 124.58476 38979 ft 494 kts 19°
2026-05-06 03:20 25.59532 124.64139 38983 ft 493 kts 19°
2026-05-06 03:21 25.65786 124.67269 38972 ft 496 kts 19°
2026-05-06 03:21 25.72079 124.70423 38972 ft 495 kts 19°
2026-05-06 03:22 25.78366 124.73579 38972 ft 495 kts 19°
2026-05-06 03:22 25.84604 124.76713 38965 ft 496 kts 19°
2026-05-06 03:23 25.90895 124.79878 38966 ft 496 kts 19°
2026-05-06 03:23 25.97147 124.83026 38968 ft 495 kts 19°
2026-05-06 03:24 26.03427 124.86192 38971 ft 495 kts 20°
2026-05-06 03:24 26.09680 124.89349 38974 ft 495 kts 20°
2026-05-06 03:25 26.15983 124.92536 38978 ft 496 kts 21°
2026-05-06 03:25 26.18021 124.93704 38980 ft 500 kts 27°
2026-05-06 03:26 26.26473 125.03030 38987 ft 513 kts 59°
2026-05-06 03:26 26.29148 125.10355 39003 ft 515 kts 77°
2026-05-06 03:27 26.29782 125.18133 39010 ft 512 kts 96°
2026-05-06 03:27 26.28722 125.25808 38989 ft 510 kts 102°
2026-05-06 03:28 26.27608 125.33564 38982 ft 511 kts 102°
2026-05-06 03:28 26.26543 125.41399 38994 ft 510 kts 101°
2026-05-06 03:29 26.25503 125.49174 39004 ft 510 kts 101°
2026-05-06 03:29 26.24466 125.56957 38716 ft 516 kts 102°
2026-05-06 03:30 26.23944 125.60869 37959 ft 514 kts 101°
2026-05-06 03:30 26.23420 125.64810 37169 ft 510 kts 102°
2026-05-06 03:30 26.22902 125.68684 36450 ft 507 kts 102°
2026-05-06 03:30 26.22385 125.72540 35705 ft 505 kts 102°
2026-05-06 03:31 26.21868 125.76401 34924 ft 500 kts 103°
2026-05-06 03:31 26.21361 125.80173 34226 ft 493 kts 103°
2026-05-06 03:31 26.20858 125.83910 33510 ft 490 kts 103°
2026-05-06 03:31 26.20353 125.87650 32799 ft 486 kts 104°
2026-05-06 03:32 26.19861 125.91286 32107 ft 477 kts 103°
2026-05-06 03:32 26.19367 125.94908 31434 ft 481 kts 103°
2026-05-06 03:32 26.18857 125.98636 30732 ft 494 kts 103°
2026-05-06 03:32 26.18338 126.02437 30003 ft 500 kts 103°
2026-05-06 03:33 26.17819 126.06256 29250 ft 498 kts 103°
2026-05-06 03:33 26.17305 126.10033 28509 ft 492 kts 103°
2026-05-06 03:33 26.16796 126.13757 27788 ft 485 kts 103°
2026-05-06 03:33 26.16294 126.17420 27085 ft 481 kts 103°
2026-05-06 03:34 26.15791 126.21066 26393 ft 479 kts 103°
2026-05-06 03:34 26.15290 126.24704 25698 ft 476 kts 103°
2026-05-06 03:34 26.14790 126.28341 25004 ft 472 kts 103°
2026-05-06 03:34 26.14299 126.31887 24326 ft 468 kts 103°
2026-05-06 03:35 26.13810 126.35420 23659 ft 463 kts 103°
2026-05-06 03:35 26.13328 126.38896 23012 ft 460 kts 103°
2026-05-06 03:35 26.12841 126.42395 22367 ft 456 kts 103°
2026-05-06 03:35 26.12364 126.45817 21731 ft 451 kts 103°
2026-05-06 03:36 26.11894 126.49191 21113 ft 446 kts 103°
2026-05-06 03:36 26.11422 126.52572 20483 ft 440 kts 102°
2026-05-06 03:36 26.10974 126.55904 19858 ft 434 kts 102°
2026-05-06 03:36 26.10540 126.59211 19232 ft 429 kts 102°
2026-05-06 03:37 26.10101 126.62466 18611 ft 423 kts 102°
2026-05-06 03:37 26.09665 126.65640 18000 ft 418 kts 102°
2026-05-06 03:37 26.09226 126.68794 17398 ft 414 kts 102°
2026-05-06 03:37 26.08782 126.71962 16794 ft 408 kts 102°
2026-05-06 03:38 26.08352 126.75005 16218 ft 401 kts 102°
2026-05-06 03:38 26.07922 126.78050 15622 ft 396 kts 101°
2026-05-06 03:38 26.07495 126.81048 15049 ft 391 kts 100°
2026-05-06 03:38 26.07078 126.84003 14471 ft 388 kts 100°
2026-05-06 03:39 26.06656 126.86964 13895 ft 384 kts 101°
2026-05-06 03:39 26.06244 126.89865 13326 ft 378 kts 100°
2026-05-06 03:39 26.05835 126.92717 12765 ft 374 kts 99°
2026-05-06 03:39 26.05427 126.95570 12219 ft 375 kts 99°
2026-05-06 03:40 26.05022 126.98403 11664 ft 375 kts 99°
2026-05-06 03:40 26.04613 127.01257 11102 ft 374 kts 98°
2026-05-06 03:40 26.04203 127.04105 10523 ft 374 kts 99°
2026-05-06 03:40 26.03799 127.06921 9977 ft 370 kts 98°
2026-05-06 03:41 26.03394 127.09750 9439 ft 363 kts 99°
2026-05-06 03:41 26.03003 127.12460 8972 ft 356 kts 98°
2026-05-06 03:41 26.02613 127.15160 8522 ft 349 kts 99°
2026-05-06 03:41 26.02241 127.17738 8033 ft 325 kts 99°
2026-05-06 03:42 26.01899 127.20100 7757 ft 302 kts 99°
2026-05-06 03:42 26.01571 127.22361 7512 ft 287 kts 98°
2026-05-06 03:42 26.01256 127.24539 7268 ft 287 kts 101°
2026-05-06 03:42 26.00937 127.26730 7030 ft 290 kts 99°
2026-05-06 03:43 26.00617 127.28935 6781 ft 288 kts 99°
2026-05-06 03:43 26.00304 127.31087 6531 ft 284 kts 99°
2026-05-06 03:43 25.99988 127.33253 6280 ft 282 kts 99°
2026-05-06 03:43 25.99677 127.35390 6039 ft 282 kts 100°
2026-05-06 03:44 25.99363 127.37537 5787 ft 280 kts 100°
2026-05-06 03:44 25.99055 127.39643 5534 ft 279 kts 100°
2026-05-06 03:44 25.98743 127.41769 5287 ft 277 kts 99°
2026-05-06 03:44 25.98432 127.43893 4994 ft 276 kts 99°
2026-05-06 03:45 25.98129 127.45953 4694 ft 272 kts 98°
2026-05-06 03:45 25.97826 127.48020 4359 ft 272 kts 98°
2026-05-06 03:45 25.97521 127.50090 4026 ft 270 kts 98°
2026-05-06 03:45 25.97222 127.52121 3679 ft 266 kts 97°
2026-05-06 03:46 25.96924 127.54146 3318 ft 262 kts 96°
2026-05-06 03:46 25.96730 127.55460 3085 ft 262 kts 96°
2026-05-06 03:46 25.96775 127.58077 2612 ft 250 kts 65°
2026-05-06 03:46 25.97327 127.59172 2391 ft 245 kts 45°
2026-05-06 03:47 26.00523 127.61537 1954 ft 232 kts 27°
2026-05-06 03:47 26.01877 127.62386 1956 ft 217 kts 26°
2026-05-06 03:47 26.03171 127.63173 1953 ft 202 kts 25°
2026-05-06 03:48 26.04423 127.63846 1981 ft 195 kts 11°
2026-05-06 03:48 26.05709 127.63889 1990 ft 178 kts 356°
2026-05-06 03:48 26.06918 127.63832 1944 ft 166 kts 357°
2026-05-06 03:48 26.08015 127.63792 1895 ft 157 kts 356°
2026-05-06 03:49 26.09127 127.63744 1718 ft 157 kts 356°
2026-05-06 03:49 26.10202 127.63698 1517 ft 146 kts 356°
2026-05-06 03:49 26.11153 127.63655 1317 ft 132 kts 357°
2026-05-06 03:49 26.12031 127.63615 1133 ft 115 kts 358°
2026-05-06 03:50 26.12295 127.63604 1072 ft 112 kts 357°
2026-05-06 03:50 26.14358 127.63526 953 ft 117 kts 358°
2026-05-06 03:50 26.15182 127.63502 942 ft 126 kts 358°
2026-05-06 03:51 26.16059 127.63436 654 ft 127 kts 356°
2026-05-06 03:51 26.16945 127.63396 296 ft 126 kts 359°
2026-05-06 03:51 26.17794 127.63358 43 ft 118 kts
2026-05-06 03:51 26.18533 127.63329 14 ft 78 kts 357°
2026-05-06 03:52 26.18956 127.63306 14 ft 52 kts 358°
2026-05-06 03:52 26.19287 127.63294 14 ft 37 kts
2026-05-06 03:52 26.19496 127.63370 14 ft 27 kts 27°
2026-05-06 03:52 26.19613 127.63438 14 ft 15 kts 26°
2026-05-06 03:53 26.19715 127.63460 14 ft 15 kts 354°
2026-05-06 03:53 26.19825 127.63455 14 ft 15 kts 356°
2026-05-06 03:53 26.19938 127.63451 14 ft 16 kts 358°
2026-05-06 03:53 26.20059 127.63448 14 ft 17 kts 359°
2026-05-06 03:54 26.20182 127.63446 14 ft 17 kts 23°
2026-05-06 03:54 26.20219 127.63562 14 ft 16 kts 87°
2026-05-06 03:54 26.20222 127.63689 16 ft 16 kts 89°
2026-05-06 03:54 26.20227 127.63809 18 ft 15 kts 87°